Regional Weather Roundup
Issued by NWS Jackson, KY

Home | Current Version | Previous Version | Graphics & Text | Print | Product List | Glossary On
Versions: 1 2 3 4 5 6 7 8 9 10 11 12 13 14 15 16 17 18 19 20 21 22 23 24 25 26 27
000
ASUS43 KJKL 241310
RWRJKL

EAST KENTUCKY HOURLY WEATHER ROUNDUP
NATIONAL WEATHER SERVICE JACKSON KY
900 AM EDT WED AUG 24 2016

NOTE: "FAIR" INDICATES FEW OR NO CLOUDS BELOW 12,000 FEET WITH
NO SIGNIFICANT WEATHER AND/OR OBSTRUCTIONS TO VISIBILITY.

* THESE REPORTS ARE NOT UNDER NWS QUALITY CONTROL AND MAY NOT
  REPORT WEATHER SUCH AS PRECIPITATION AND FOG.

KYZ079-080-083-085-087-088-110-112-115-119-120-241400
...EASTERN KENTUCKY...

CITY           SKY/WX    TMP DP  RH WIND       PRES   REMARKS
JACKSON        PTSUNNY   70  64  81 CALM      30.28R
LONDON         MOSUNNY   69  64  84 CALM      30.27R
SOMERSET*      CLOUDY    68  68 100 S3        30.27S
MONTICELLO*    PTSUNNY  N/A N/A N/A VRB7      30.27R
WILLIAMSBURG*  PTSUNNY   68  68 100 SE3       30.27S
MIDDLESBORO*   CLOUDY    65  64  96 CALM      30.31R
HARLAN APT*      N/A     64  63  94 CALM      30.31R
PIKE CO APT*     N/A     69  65  89 CALM      30.30R
BIG SANDY APT* PTSUNNY   70  66  86 S5        30.28R
MOREHEAD APT*  MOSUNNY   68  63  83 SE3       30.27R
ASHLAND*       MOSUNNY   68  64  88 SE3       30.23S
$$

KYZ035-036-041-042-044-050-067-078-099-241400
...CENTRAL KENTUCKY...

CITY           SKY/WX    TMP DP  RH WIND       PRES   REMARKS
MT STERLING*   MOSUNNY   70  66  88 SW3       30.26R
FLEMING/MASON* MOSUNNY   69  64  85 S5        30.25S
DANVILLE*      CLOUDY    68  64  88 SW3       30.26R
LEXINGTON      CLOUDY    72  66  81 S6        30.24R
FRANKFORT      MOSUNNY   72  66  81 S5        30.21S
LOUISVILLE     CLOUDY    74  67  78 SE6       30.19R
LEBANON*         N/A     73  68  83 SE8       30.23R
GLASGOW*       CLOUDY    74  71  92 S3        30.22S
BOWLING GREEN  CLOUDY    75  70  84 CALM      30.21R
$$

KYZ091>093-OHZ055-061-077-WVZ005-015-034-035-042-241400
...SOUTHERN OHIO/WEST VIRGINIA...

CITY           SKY/WX    TMP DP  RH WIND       PRES   REMARKS
COVINGTON      CLOUDY    71  65  81 S7        30.20S
COLUMBUS       CLOUDY    69  61  75 SE5       30.22R
DAYTON         CLOUDY    70  62  76 S8        30.20F
WILMINGTON     CLOUDY    69  63  81 S6        30.22S
HUNTINGTON     MOSUNNY   68  65  90 S6        30.25R
CHARLESTON     CLOUDY    65  63  93 CALM      30.26S
PINEVILLE*     CLOUDY    65  62  90 MISG      30.37R
BECKLEY        CLOUDY    70  61  73 SE7       30.35S
BLUEFIELD      MOSUNNY   67  59  75 VRB3      30.38R
LOGAN CO APT*  PTSUNNY   70  63  78 CALM      30.29R
$$

VAZ002-007-008-TNZ017-027-036-066-071-241400
...SOUTHWEST VIRGINIA/EAST TENNESSEE...

CITY           SKY/WX    TMP DP  RH WIND       PRES   REMARKS
WISE*          CLOUDY    70  55  60 S6        30.37S
JONESVILLE*    PTSUNNY   68  66  94 CALM      30.33R
ABINGDON*      PTSUNNY   71  64  78 E7        30.35S
BRISTOL        CLOUDY    68  63  84 CALM      30.32S
MORRISTOWN*    CLOUDY    72  68  88 NE3       30.29R
SEVIERVILLE*   PTSUNNY   72  66  83 CALM      30.27S
OAK RIDGE      CLOUDY    71  67  87 CALM      30.29R
CROSSVILLE     MOSUNNY   74  67  78 VRB3      30.31R
NASHVILLE      CLOUDY    75  70  84 SE3       30.23R
$$

...KEY TO REMARKS...
VSB - VISIBILITY IN MILES
WCI - WIND CHILL INDEX
HX  - HEAT INDEX

$$




USA.gov is the U.S. government's official web portal to all federal, state and local government web resources and services.